Hourly Weather Roundup
Issued by NWS Central Illinois

Home | Current Version | Previous Version | Text Only | Print | Product List | Glossary On
Versions: 1 2 3 4 5 6 7 8 9 10 11 12 13 14 15 16 17 18 19 20 21 22 23 24 25 26 27 28 29 30 31 32 33 34 35 36 37 38 39 40 41 42 43 44 45 46 47 48 49 50
000
NZUS43 KILX 180210
HWRILX

AREA WEATHER ROUNDUP
NATIONAL WEATHER SERVICE, LINCOLN IL
900 PM CDT FRI APR 17 2015


CITY           SKY/WX    TMP DP  RH WIND       PRES   REMARKS
BLOOMINGTON    CLEAR     69  51  52 S5        30.04R
CHAMPAIGN      CLEAR     64  49  57 S7        30.03R
DECATUR        CLEAR     67  53  61 SW3       30.03R
EFFINGHAM      CLEAR     63  53  70 CALM      30.05R
FLORA          PTCLDY    65  56  72 CALM      30.04R
GALESBURG      CLOUDY    68  53  56 E3        30.01R
JACKSONVILLE   CLEAR     71  54  54 S3        30.02R
LACON          PTCLDY    62  52  68 CALM      30.00R
LAWRENCEVILLE  PTCLDY    68  55  63 CALM      30.03R
LITCHFIELD     CLEAR     65  56  71 S5        30.03R
$$


CITY           SKY/WX    TMP DP  RH WIND       PRES   REMARKS
LINCOLN        PTCLDY    69  51  52 CALM      29.99R
MACOMB         CLOUDY    68  52  56 N3        30.02R
MATTOON        CLEAR     67  53  61 S3        30.03R
MT CARMEL AP   PTCLDY    70  55  60 CALM      30.03R
OLNEY-NOBLE AP CLEAR     63  55  77 CALM      30.03R
PARIS          CLEAR     62  56  81 CALM      30.04R
PEORIA         MOCLDY    70  52  52 CALM      30.01R
PONTIAC        CLEAR     64  48  56 E3        30.02R
RANTOUL        CLEAR     67  52  58 SE5       30.03R
ROBINSON       CLEAR     63  55  77 CALM      30.04R
SPRINGFIELD    PTCLDY    68  53  58 S7        30.02R
TAYLORVILLE    CLEAR     63  54  72 S5        30.02R
$$

...REGIONAL REPORTS...


CITY           SKY/WX    TMP DP  RH WIND       PRES   REMARKS
CHICAGO O`HARE PTCLDY    63  46  54 SE7       30.00R
KANKAKEE       CLEAR     63  51  63 SE3       30.02R
MOLINE         MOCLDY    63  49  60 CALM      30.00R
MOUNT VERNON   CLEAR     59  54  82 CALM      30.04R
PITTSFIELD     CLEAR     70  54  56 S5        30.02R
QUINCY         CLEAR     70  51  51 S5        30.00R
ROCKFORD       MOCLDY    70  48  45 CALM      30.02R
$$


CITY           SKY/WX    TMP DP  RH WIND       PRES   REMARKS
BURLINGTON     PTCLDY    68  53  58 CALM      30.00R
CEDAR RAPIDS   MOCLDY    67  50  54 S3        30.00R
DES MOINES     CLOUDY    74  50  42 NE3       30.00R
KIRKSVILLE     MOCLDY    67  56  67 S3        30.01R
OTTUMWA        PTCLDY    67  50  54 E5        30.00R
ST LOUIS       PTCLDY    70  55  59 E7        30.01R
$$


CITY           SKY/WX    TMP DP  RH WIND       PRES   REMARKS
TERRE HAUTE    CLEAR     62  52  69 NE3       30.03R
EVANSVILLE     PTCLDY    67  59  75 CALM      30.03R
INDIANAPOLIS   PTCLDY    68  42  38 N5        30.03R
LAFAYETTE      CLEAR     59  49  69 CALM      30.02R
MADISON        PTCLDY    63  45  51 CALM      29.99R
MILWAUKEE      PTCLDY    50  38  63 CALM      30.01R
$$




USA.gov is the U.S. government's official web portal to all federal, state and local government web resources and services.